contact:dominique.lefevre@mio.osupytheas.fr, maurice.libes@osupytheas.fr, didier.mallarino@osupytheas.fr
Project:EMSO http://www.emso-fr.org/EMSO-France
Depth: 2436.0 m
Title:EMSO Ligure Ouest : Data MII capteur MICROCAT
DateTime_Computer,Latitude,Longitude,Temperature,Conductivity,Pressure,DateTime_Instrument
DateTime_Computer,Latitude,Longitude,degC,S m-1,dbar,DateTime_Instrument
2022-02-10T00:01:45Z,42.805,6.029,13.2995,4.60024,2470.38,2022-2-10T02:03:19Z
2022-02-10T00:04:49Z,42.805,6.029,13.2997,4.60024,2470.39,2022-2-10T02:06:22Z
2022-02-10T00:07:52Z,42.805,6.029,13.2993,4.60024,2470.366,2022-2-10T02:09:25Z
2022-02-10T00:10:55Z,42.805,6.029,13.3001,4.60024,2470.38,2022-2-10T02:12:28Z
2022-02-10T00:13:58Z,42.805,6.029,13.2999,4.60026,2470.38,2022-2-10T02:15:31Z
2022-02-10T00:17:01Z,42.805,6.029,13.3000,4.60024,2470.39,2022-2-10T02:18:34Z
2022-02-10T00:20:04Z,42.805,6.029,13.3001,4.60025,2470.366,2022-2-10T02:21:37Z
2022-02-10T00:23:07Z,42.805,6.029,13.2998,4.60025,2470.366,2022-2-10T02:24:40Z
2022-02-10T00:26:10Z,42.805,6.029,13.3000,4.60024,2470.366,2022-2-10T02:27:44Z
2022-02-10T00:29:14Z,42.805,6.029,13.3001,4.60023,2470.39,2022-2-10T02:30:47Z
2022-02-10T00:32:17Z,42.805,6.029,13.2996,4.60025,2470.366,2022-2-10T02:33:50Z
2022-02-10T00:35:20Z,42.805,6.029,13.2998,4.60025,2470.39,2022-2-10T02:36:53Z
2022-02-10T00:38:23Z,42.805,6.029,13.2997,4.60024,2470.39,2022-2-10T02:39:56Z
2022-02-10T00:41:26Z,42.805,6.029,13.2998,4.60024,2470.404,2022-2-10T02:42:59Z
2022-02-10T00:44:29Z,42.805,6.029,13.2999,4.60025,2470.38,2022-2-10T02:46:02Z
2022-02-10T00:47:32Z,42.805,6.029,13.2997,4.60024,2470.366,2022-2-10T02:49:05Z
2022-02-10T00:50:35Z,42.805,6.029,13.2993,4.60024,2470.39,2022-2-10T02:52:09Z
2022-02-10T00:53:39Z,42.805,6.029,13.3001,4.60025,2470.38,2022-2-10T02:55:12Z
2022-02-10T00:56:42Z,42.805,6.029,13.3000,4.60025,2470.366,2022-2-10T02:58:15Z
2022-02-10T00:59:45Z,42.805,6.029,13.3000,4.60024,2470.404,2022-2-10T03:01:18Z
2022-02-10T01:02:48Z,42.805,6.029,13.2998,4.60025,2470.366,2022-2-10T03:04:21Z
2022-02-10T01:05:51Z,42.805,6.029,13.3003,4.60026,2470.366,2022-2-10T03:07:24Z
2022-02-10T01:08:54Z,42.805,6.029,13.3000,4.60026,2470.427,2022-2-10T03:10:27Z
2022-02-10T01:11:57Z,42.805,6.029,13.2998,4.60025,2470.366,2022-2-10T03:13:30Z
2022-02-10T01:15:00Z,42.805,6.029,13.2998,4.60024,2470.404,2022-2-10T03:16:34Z
2022-02-10T01:18:04Z,42.805,6.029,13.3000,4.60026,2470.399,2022-2-10T03:19:37Z
2022-02-10T01:21:07Z,42.805,6.029,13.3000,4.60025,2470.39,2022-2-10T03:22:40Z
2022-02-10T01:24:10Z,42.805,6.029,13.2999,4.60027,2470.366,2022-2-10T03:25:43Z
2022-02-10T01:27:13Z,42.805,6.029,13.2996,4.60025,2470.39,2022-2-10T03:28:46Z
2022-02-10T01:30:16Z,42.805,6.029,13.2996,4.60025,2470.413,2022-2-10T03:31:49Z
2022-02-10T01:33:19Z,42.805,6.029,13.2996,4.60024,2470.39,2022-2-10T03:34:52Z
2022-02-10T01:36:22Z,42.805,6.029,13.2999,4.60025,2470.366,2022-2-10T03:37:55Z
2022-02-10T01:39:25Z,42.805,6.029,13.2999,4.60024,2470.366,2022-2-10T03:40:59Z
2022-02-10T01:42:29Z,42.805,6.029,13.3000,4.60025,2470.39,2022-2-10T03:44:02Z
2022-02-10T01:45:32Z,42.805,6.029,13.2999,4.60024,2470.404,2022-2-10T03:47:05Z
2022-02-10T01:48:35Z,42.805,6.029,13.2997,4.60025,2470.38,2022-2-10T03:50:08Z
2022-02-10T01:51:38Z,42.805,6.029,13.2998,4.60027,2470.39,2022-2-10T03:53:11Z
2022-02-10T01:54:41Z,42.805,6.029,13.3000,4.60026,2470.413,2022-2-10T03:56:14Z
2022-02-10T01:57:44Z,42.805,6.029,13.3000,4.60025,2470.404,2022-2-10T03:59:17Z
2022-02-10T02:00:47Z,42.805,6.029,13.2995,4.60024,2470.437,2022-2-10T04:02:20Z
2022-02-10T02:03:50Z,42.805,6.029,13.2998,4.60025,2470.39,2022-2-10T04:05:23Z
2022-02-10T02:06:53Z,42.805,6.029,13.2999,4.60026,2470.413,2022-2-10T04:08:27Z
2022-02-10T02:09:57Z,42.805,6.029,13.3000,4.60024,2470.413,2022-2-10T04:11:30Z
2022-02-10T02:13:00Z,42.805,6.029,13.3001,4.60026,2470.413,2022-2-10T04:14:33Z
2022-02-10T02:16:03Z,42.805,6.029,13.2998,4.60025,2470.39,2022-2-10T04:17:36Z
2022-02-10T02:19:06Z,42.805,6.029,13.2998,4.60025,2470.399,2022-2-10T04:20:39Z
2022-02-10T02:22:09Z,42.805,6.029,13.3002,4.60024,2470.427,2022-2-10T04:23:42Z
2022-02-10T02:25:12Z,42.805,6.029,13.3000,4.60025,2470.357,2022-2-10T04:26:45Z
2022-02-10T02:28:15Z,42.805,6.029,13.2999,4.60025,2470.39,2022-2-10T04:29:48Z
2022-02-10T02:31:18Z,42.805,6.029,13.3000,4.60024,2470.404,2022-2-10T04:32:52Z
2022-02-10T02:34:22Z,42.805,6.029,13.2998,4.60025,2470.366,2022-2-10T04:35:55Z
2022-02-10T02:37:25Z,42.805,6.029,13.3000,4.60024,2470.427,2022-2-10T04:38:58Z
2022-02-10T02:40:28Z,42.805,6.029,13.3000,4.60026,2470.353,2022-2-10T04:42:01Z
2022-02-10T02:43:31Z,42.805,6.029,13.3000,4.60024,2470.366,2022-2-10T04:45:04Z
2022-02-10T02:46:34Z,42.805,6.029,13.2997,4.60025,2470.404,2022-2-10T04:48:07Z
2022-02-10T02:49:37Z,42.805,6.029,13.3000,4.60025,2470.404,2022-2-10T04:51:10Z
2022-02-10T02:52:40Z,42.805,6.029,13.2998,4.60026,2470.39,2022-2-10T04:54:13Z
2022-02-10T02:55:43Z,42.805,6.029,13.3000,4.60026,2470.404,2022-2-10T04:57:17Z
2022-02-10T02:58:47Z,42.805,6.029,13.3003,4.60025,2470.404,2022-2-10T05:00:20Z
2022-02-10T03:01:50Z,42.805,6.029,13.3003,4.60025,2470.404,2022-2-10T05:03:23Z
2022-02-10T03:04:53Z,42.805,6.029,13.3000,4.60025,2470.366,2022-2-10T05:06:26Z
2022-02-10T03:07:56Z,42.805,6.029,13.3003,4.60026,2470.38,2022-2-10T05:09:29Z
2022-02-10T03:10:59Z,42.805,6.029,13.3000,4.60026,2470.427,2022-2-10T05:12:32Z
2022-02-10T03:14:02Z,42.805,6.029,13.2996,4.60026,2470.427,2022-2-10T05:15:35Z
2022-02-10T03:17:05Z,42.805,6.029,13.2999,4.60025,2470.413,2022-2-10T05:18:38Z
2022-02-10T03:20:08Z,42.805,6.029,13.3004,4.60025,2470.404,2022-2-10T05:21:42Z
2022-02-10T03:23:12Z,42.805,6.029,13.2999,4.60026,2470.39,2022-2-10T05:24:45Z
2022-02-10T03:26:15Z,42.805,6.029,13.3000,4.60025,2470.39,2022-2-10T05:27:48Z
2022-02-10T03:29:18Z,42.805,6.029,13.2998,4.60026,2470.413,2022-2-10T05:30:51Z
2022-02-10T03:32:21Z,42.805,6.029,13.3004,4.60025,2470.39,2022-2-10T05:33:54Z
2022-02-10T03:35:24Z,42.805,6.029,13.3003,4.60025,2470.38,2022-2-10T05:36:57Z
2022-02-10T03:38:27Z,42.805,6.029,13.3001,4.60025,2470.427,2022-2-10T05:40:00Z
2022-02-10T03:41:30Z,42.805,6.029,13.2998,4.60028,2470.39,2022-2-10T05:43:03Z
2022-02-10T03:44:33Z,42.805,6.029,13.3001,4.60025,2470.404,2022-2-10T05:46:07Z
2022-02-10T03:47:37Z,42.805,6.029,13.2997,4.60027,2470.39,2022-2-10T05:49:10Z
2022-02-10T03:50:40Z,42.805,6.029,13.3000,4.60027,2470.413,2022-2-10T05:52:13Z
2022-02-10T03:53:43Z,42.805,6.029,13.2999,4.60026,2470.413,2022-2-10T05:55:16Z
2022-02-10T03:56:46Z,42.805,6.029,13.2998,4.60025,2470.39,2022-2-10T05:58:19Z
2022-02-10T03:59:49Z,42.805,6.029,13.2999,4.60026,2470.427,2022-2-10T06:01:22Z
2022-02-10T04:02:52Z,42.805,6.029,13.2999,4.60025,2470.39,2022-2-10T06:04:25Z
2022-02-10T04:05:55Z,42.805,6.029,13.2998,4.60025,2470.413,2022-2-10T06:07:28Z
2022-02-10T04:08:58Z,42.805,6.029,13.3000,4.60025,2470.413,2022-2-10T06:10:31Z
2022-02-10T04:12:02Z,42.805,6.029,13.3000,4.60026,2470.413,2022-2-10T06:13:35Z
2022-02-10T04:15:05Z,42.805,6.029,13.3007,4.60026,2470.427,2022-2-10T06:16:38Z
2022-02-10T04:18:08Z,42.805,6.029,13.3000,4.60026,2470.39,2022-2-10T06:19:41Z
2022-02-10T04:21:11Z,42.805,6.029,13.2997,4.60028,2470.413,2022-2-10T06:22:44Z
2022-02-10T04:24:14Z,42.805,6.029,13.3002,4.60026,2470.437,2022-2-10T06:25:47Z
2022-02-10T04:27:17Z,42.805,6.029,13.3001,4.60026,2470.413,2022-2-10T06:28:50Z
2022-02-10T04:30:20Z,42.805,6.029,13.3000,4.60028,2470.39,2022-2-10T06:31:53Z
2022-02-10T04:33:23Z,42.805,6.029,13.3003,4.60033,2470.413,2022-2-10T06:34:57Z
2022-02-10T04:36:26Z,42.805,6.029,13.3000,4.60026,2470.39,2022-2-10T06:38:00Z
2022-02-10T04:39:30Z,42.805,6.029,13.3003,4.60026,2470.399,2022-2-10T06:41:03Z
2022-02-10T04:42:33Z,42.805,6.029,13.3000,4.60026,2470.413,2022-2-10T06:44:06Z
2022-02-10T04:45:36Z,42.805,6.029,13.3006,4.60027,2470.413,2022-2-10T06:47:09Z
2022-02-10T04:48:39Z,42.805,6.029,13.2999,4.60026,2470.413,2022-2-10T06:50:12Z
2022-02-10T04:51:42Z,42.805,6.029,13.2999,4.60027,2470.39,2022-2-10T06:53:15Z
2022-02-10T04:54:45Z,42.805,6.029,13.3000,4.60026,2470.413,2022-2-10T06:56:18Z
2022-02-10T04:57:48Z,42.805,6.029,13.2999,4.60027,2470.427,2022-2-10T06:59:21Z
2022-02-10T05:00:51Z,42.805,6.029,13.2999,4.60029,2470.427,2022-2-10T07:02:25Z
2022-02-10T05:03:55Z,42.805,6.029,13.3002,4.60026,2470.413,2022-2-10T07:05:28Z
2022-02-10T05:06:58Z,42.805,6.029,13.3005,4.60032,2470.413,2022-2-10T07:08:31Z
2022-02-10T05:10:01Z,42.805,6.029,13.3000,4.60026,2470.427,2022-2-10T07:11:34Z
2022-02-10T05:13:04Z,42.805,6.029,13.3000,4.60027,2470.437,2022-2-10T07:14:37Z
2022-02-10T05:16:07Z,42.805,6.029,13.2998,4.60027,2470.413,2022-2-10T07:17:40Z
2022-02-10T05:19:10Z,42.805,6.029,13.3003,4.60026,2470.404,2022-2-10T07:20:43Z
2022-02-10T05:22:13Z,42.805,6.029,13.2999,4.60031,2470.45,2022-2-10T07:23:46Z
2022-02-10T05:25:16Z,42.805,6.029,13.2998,4.60026,2470.437,2022-2-10T07:26:50Z
2022-02-10T05:28:20Z,42.805,6.029,13.3001,4.60027,2470.474,2022-2-10T07:29:53Z
2022-02-10T05:31:23Z,42.805,6.029,13.2998,4.60026,2470.437,2022-2-10T07:32:56Z
2022-02-10T05:34:26Z,42.805,6.029,13.3000,4.60026,2470.437,2022-2-10T07:35:59Z
2022-02-10T05:37:29Z,42.805,6.029,13.3003,4.60029,2470.437,2022-2-10T07:39:02Z
2022-02-10T05:40:32Z,42.805,6.029,13.3004,4.60026,2470.437,2022-2-10T07:42:05Z
2022-02-10T05:43:35Z,42.805,6.029,13.3003,4.60027,2470.437,2022-2-10T07:45:08Z
2022-02-10T05:46:38Z,42.805,6.029,13.2999,4.60026,2470.413,2022-2-10T07:48:11Z
2022-02-10T05:49:41Z,42.805,6.029,13.3001,4.60026,2470.413,2022-2-10T07:51:15Z
2022-02-10T05:52:45Z,42.805,6.029,13.2998,4.60028,2470.413,2022-2-10T07:54:18Z
2022-02-10T05:55:48Z,42.805,6.029,13.3000,4.60027,2470.45,2022-2-10T07:57:21Z
2022-02-10T05:58:51Z,42.805,6.029,13.2999,4.60031,2470.413,2022-2-10T08:00:24Z
2022-02-10T06:01:54Z,42.805,6.029,13.2999,4.60026,2470.39,2022-2-10T08:03:27Z
2022-02-10T06:04:57Z,42.805,6.029,13.3000,4.60026,2470.437,2022-2-10T08:06:30Z
2022-02-10T06:08:00Z,42.805,6.029,13.3001,4.60027,2470.413,2022-2-10T08:09:33Z
2022-02-10T06:11:03Z,42.805,6.029,13.2999,4.60026,2470.427,2022-2-10T08:12:36Z
2022-02-10T06:14:06Z,42.805,6.029,13.3000,4.60026,2470.427,2022-2-10T08:15:40Z
2022-02-10T06:17:10Z,42.805,6.029,13.3002,4.60026,2470.437,2022-2-10T08:18:43Z
2022-02-10T06:20:13Z,42.805,6.029,13.3001,4.60026,2470.437,2022-2-10T08:21:46Z
2022-02-10T06:23:16Z,42.805,6.029,13.2997,4.60027,2470.413,2022-2-10T08:24:49Z
2022-02-10T06:26:19Z,42.805,6.029,13.3002,4.60026,2470.437,2022-2-10T08:27:52Z
2022-02-10T06:29:22Z,42.805,6.029,13.2998,4.60026,2470.46,2022-2-10T08:30:55Z
2022-02-10T06:32:25Z,42.805,6.029,13.2994,4.60026,2470.413,2022-2-10T08:33:58Z
2022-02-10T06:35:28Z,42.805,6.029,13.3001,4.60026,2470.45,2022-2-10T08:37:01Z
2022-02-10T06:38:31Z,42.805,6.029,13.3002,4.60027,2470.413,2022-2-10T08:40:05Z
2022-02-10T06:41:35Z,42.805,6.029,13.3004,4.60026,2470.413,2022-2-10T08:43:08Z
2022-02-10T06:44:38Z,42.805,6.029,13.3000,4.60026,2470.437,2022-2-10T08:46:11Z
2022-02-10T06:47:41Z,42.805,6.029,13.2998,4.60026,2470.437,2022-2-10T08:49:14Z
2022-02-10T06:50:44Z,42.805,6.029,13.2999,4.60025,2470.413,2022-2-10T08:52:17Z
2022-02-10T06:53:47Z,42.805,6.029,13.3000,4.60027,2470.437,2022-2-10T08:55:20Z
2022-02-10T06:56:50Z,42.805,6.029,13.3000,4.60027,2470.413,2022-2-10T08:58:23Z
2022-02-10T06:59:53Z,42.805,6.029,13.3001,4.60026,2470.404,2022-2-10T09:01:26Z
2022-02-10T07:02:56Z,42.805,6.029,13.3001,4.60026,2470.404,2022-2-10T09:04:30Z
2022-02-10T07:06:00Z,42.805,6.029,13.3001,4.60027,2470.437,2022-2-10T09:07:33Z
2022-02-10T07:09:03Z,42.805,6.029,13.3000,4.60026,2470.404,2022-2-10T09:10:36Z
2022-02-10T07:12:06Z,42.805,6.029,13.3000,4.60028,2470.413,2022-2-10T09:13:39Z
2022-02-10T07:15:09Z,42.805,6.029,13.3000,4.60029,2470.38,2022-2-10T09:16:42Z
2022-02-10T07:18:12Z,42.805,6.029,13.2998,4.60025,2470.427,2022-2-10T09:19:45Z
2022-02-10T07:21:15Z,42.805,6.029,13.3000,4.60026,2470.45,2022-2-10T09:22:48Z
2022-02-10T07:24:18Z,42.805,6.029,13.3000,4.60026,2470.45,2022-2-10T09:25:51Z
2022-02-10T07:27:21Z,42.805,6.029,13.2998,4.60026,2470.404,2022-2-10T09:28:55Z
2022-02-10T07:30:25Z,42.805,6.029,13.3001,4.60026,2470.404,2022-2-10T09:31:58Z
2022-02-10T07:33:28Z,42.805,6.029,13.3002,4.60026,2470.427,2022-2-10T09:35:01Z
2022-02-10T07:36:31Z,42.805,6.029,13.3001,4.60030,2470.39,2022-2-10T09:38:04Z
2022-02-10T07:39:34Z,42.805,6.029,13.3000,4.60026,2470.399,2022-2-10T09:41:07Z
2022-02-10T07:42:37Z,42.805,6.029,13.3001,4.60026,2470.404,2022-2-10T09:44:10Z
2022-02-10T07:45:40Z,42.805,6.029,13.3002,4.60027,2470.404,2022-2-10T09:47:13Z
2022-02-10T07:48:43Z,42.805,6.029,13.3000,4.60026,2470.423,2022-2-10T09:50:16Z
2022-02-10T07:51:46Z,42.805,6.029,13.3000,4.60026,2470.39,2022-2-10T09:53:20Z
2022-02-10T07:54:49Z,42.805,6.029,13.3004,4.60025,2470.427,2022-2-10T09:56:23Z
2022-02-10T07:57:53Z,42.805,6.029,13.3003,4.60026,2470.413,2022-2-10T09:59:26Z
2022-02-10T08:00:56Z,42.805,6.029,13.3000,4.60027,2470.413,2022-2-10T10:02:29Z
2022-02-10T08:03:59Z,42.805,6.029,13.2997,4.60027,2470.39,2022-2-10T10:05:32Z
2022-02-10T08:07:02Z,42.805,6.029,13.2997,4.60026,2470.413,2022-2-10T10:08:35Z
2022-02-10T08:10:05Z,42.805,6.029,13.3000,4.60028,2470.427,2022-2-10T10:11:38Z
2022-02-10T08:13:08Z,42.805,6.029,13.3000,4.60026,2470.413,2022-2-10T10:14:41Z
2022-02-10T08:16:11Z,42.805,6.029,13.3001,4.60028,2470.427,2022-2-10T10:17:44Z
2022-02-10T08:19:14Z,42.805,6.029,13.2999,4.60026,2470.39,2022-2-10T10:20:48Z
2022-02-10T08:22:18Z,42.805,6.029,13.2998,4.60027,2470.343,2022-2-10T10:23:51Z
2022-02-10T08:25:21Z,42.805,6.029,13.3000,4.60026,2470.404,2022-2-10T10:26:54Z
2022-02-10T08:28:24Z,42.805,6.029,13.2999,4.60026,2470.366,2022-2-10T10:29:57Z
2022-02-10T08:31:27Z,42.805,6.029,13.3000,4.60029,2470.404,2022-2-10T10:33:00Z
2022-02-10T08:34:30Z,42.805,6.029,13.3004,4.60027,2470.39,2022-2-10T10:36:03Z
2022-02-10T08:37:33Z,42.805,6.029,13.2998,4.60027,2470.39,2022-2-10T10:39:06Z
2022-02-10T08:40:36Z,42.805,6.029,13.3000,4.60027,2470.413,2022-2-10T10:42:10Z
2022-02-10T08:43:40Z,42.805,6.029,13.3003,4.60027,2470.413,2022-2-10T10:45:13Z
2022-02-10T08:46:43Z,42.805,6.029,13.3002,4.60026,2470.39,2022-2-10T10:48:16Z
2022-02-10T08:49:46Z,42.805,6.029,13.3003,4.60026,2470.39,2022-2-10T10:51:19Z
2022-02-10T08:52:49Z,42.805,6.029,13.3000,4.60027,2470.404,2022-2-10T10:54:22Z
2022-02-10T08:55:52Z,42.805,6.029,13.3000,4.60027,2470.404,2022-2-10T10:57:25Z
2022-02-10T08:58:55Z,42.805,6.029,13.3001,4.60028,2470.404,2022-2-10T11:00:28Z
2022-02-10T09:01:58Z,42.805,6.029,13.3002,4.60028,2470.413,2022-2-10T11:03:31Z
2022-02-10T09:05:01Z,42.805,6.029,13.2998,4.60029,2470.39,2022-2-10T11:06:35Z
2022-02-10T09:08:05Z,42.805,6.029,13.3001,4.60029,2470.38,2022-2-10T11:09:38Z
2022-02-10T09:11:08Z,42.805,6.029,13.2999,4.60027,2470.413,2022-2-10T11:12:41Z
2022-02-10T09:14:11Z,42.805,6.029,13.3001,4.60028,2470.343,2022-2-10T11:15:44Z
2022-02-10T09:17:14Z,42.805,6.029,13.3000,4.60027,2470.413,2022-2-10T11:18:47Z
2022-02-10T09:20:17Z,42.805,6.029,13.3002,4.60031,2470.413,2022-2-10T11:21:50Z
2022-02-10T09:23:20Z,42.805,6.029,13.3000,4.60027,2470.413,2022-2-10T11:24:53Z
2022-02-10T09:26:23Z,42.805,6.029,13.3002,4.60029,2470.39,2022-2-10T11:27:56Z
2022-02-10T09:29:26Z,42.805,6.029,13.3000,4.60028,2470.404,2022-2-10T11:31:00Z
2022-02-10T09:32:30Z,42.805,6.029,13.3000,4.60030,2470.413,2022-2-10T11:34:03Z
2022-02-10T09:35:33Z,42.805,6.029,13.3000,4.60027,2470.413,2022-2-10T11:37:06Z
2022-02-10T09:38:36Z,42.805,6.029,13.3000,4.60026,2470.45,2022-2-10T11:40:09Z
2022-02-10T09:41:39Z,42.805,6.029,13.3002,4.60029,2470.427,2022-2-10T11:43:12Z
2022-02-10T09:44:42Z,42.805,6.029,13.3003,4.60029,2470.427,2022-2-10T11:46:15Z
2022-02-10T09:47:45Z,42.805,6.029,13.3003,4.60030,2470.413,2022-2-10T11:49:18Z
2022-02-10T09:50:48Z,42.805,6.029,13.3000,4.60028,2470.427,2022-2-10T11:52:21Z
2022-02-10T09:53:51Z,42.805,6.029,13.2998,4.60027,2470.45,2022-2-10T11:55:25Z
2022-02-10T09:56:55Z,42.805,6.029,13.3001,4.60029,2470.413,2022-2-10T11:58:28Z
2022-02-10T09:59:58Z,42.805,6.029,13.3001,4.60029,2470.404,2022-2-10T12:01:31Z
2022-02-10T10:03:01Z,42.805,6.029,13.3002,4.60029,2470.413,2022-2-10T12:04:34Z
2022-02-10T10:06:04Z,42.805,6.029,13.3004,4.60028,2470.39,2022-2-10T12:07:37Z
2022-02-10T10:09:07Z,42.805,6.029,13.3001,4.60028,2470.413,2022-2-10T12:10:40Z
2022-02-10T10:12:10Z,42.805,6.029,13.2999,4.60028,2470.413,2022-2-10T12:13:43Z
2022-02-10T10:15:13Z,42.805,6.029,13.2998,4.60028,2470.427,2022-2-10T12:16:46Z
2022-02-10T10:18:16Z,42.805,6.029,13.3002,4.60029,2470.437,2022-2-10T12:19:50Z
2022-02-10T10:21:20Z,42.805,6.029,13.2998,4.60028,2470.437,2022-2-10T12:22:53Z
2022-02-10T10:24:23Z,42.805,6.029,13.3004,4.60028,2470.437,2022-2-10T12:25:56Z
2022-02-10T10:27:26Z,42.805,6.029,13.3001,4.60027,2470.39,2022-2-10T12:28:59Z
2022-02-10T10:30:29Z,42.805,6.029,13.3000,4.60028,2470.39,2022-2-10T12:32:02Z
2022-02-10T10:33:32Z,42.805,6.029,13.2999,4.60028,2470.413,2022-2-10T12:35:05Z
2022-02-10T10:36:35Z,42.805,6.029,13.3000,4.60029,2470.427,2022-2-10T12:38:08Z
2022-02-10T10:39:38Z,42.805,6.029,13.2998,4.60029,2470.39,2022-2-10T12:41:11Z
2022-02-10T10:42:41Z,42.805,6.029,13.2998,4.60029,2470.427,2022-2-10T12:44:15Z
2022-02-10T10:45:45Z,42.805,6.029,13.3005,4.60028,2470.413,2022-2-10T12:47:18Z
2022-02-10T10:48:48Z,42.805,6.029,13.2997,4.60027,2470.45,2022-2-10T12:50:21Z
2022-02-10T10:51:51Z,42.805,6.029,13.3001,4.60028,2470.46,2022-2-10T12:53:24Z
2022-02-10T10:54:54Z,42.805,6.029,13.2998,4.60029,2470.437,2022-2-10T12:56:27Z
2022-02-10T10:57:57Z,42.805,6.029,13.3003,4.60028,2470.437,2022-2-10T12:59:30Z
2022-02-10T11:01:00Z,42.805,6.029,13.3000,4.60028,2470.39,2022-2-10T13:02:33Z
2022-02-10T11:04:03Z,42.805,6.029,13.3000,4.60027,2470.427,2022-2-10T13:05:36Z
2022-02-10T11:07:06Z,42.805,6.029,13.3000,4.60029,2470.413,2022-2-10T13:08:40Z
2022-02-10T11:10:10Z,42.805,6.029,13.3004,4.60027,2470.46,2022-2-10T13:11:43Z
2022-02-10T11:13:13Z,42.805,6.029,13.3000,4.60028,2470.413,2022-2-10T13:14:46Z
2022-02-10T11:16:16Z,42.805,6.029,13.2998,4.60028,2470.413,2022-2-10T13:17:49Z
2022-02-10T11:19:19Z,42.805,6.029,13.3002,4.60027,2470.437,2022-2-10T13:20:52Z
2022-02-10T11:22:22Z,42.805,6.029,13.3000,4.60026,2470.45,2022-2-10T13:23:55Z
2022-02-10T11:25:25Z,42.805,6.029,13.2997,4.60027,2470.437,2022-2-10T13:26:58Z
2022-02-10T11:28:28Z,42.805,6.029,13.3001,4.60029,2470.39,2022-2-10T13:30:01Z
2022-02-10T11:31:31Z,42.805,6.029,13.3003,4.60029,2470.39,2022-2-10T13:33:05Z
2022-02-10T11:34:35Z,42.805,6.029,13.3001,4.60028,2470.427,2022-2-10T13:36:08Z
2022-02-10T11:37:38Z,42.805,6.029,13.2998,4.60027,2470.413,2022-2-10T13:39:11Z
2022-02-10T11:40:41Z,42.805,6.029,13.3000,4.60027,2470.437,2022-2-10T13:42:14Z
2022-02-10T11:43:44Z,42.805,6.029,13.3001,4.60027,2470.437,2022-2-10T13:45:17Z
2022-02-10T11:46:47Z,42.805,6.029,13.3001,4.60029,2470.437,2022-2-10T13:48:20Z
2022-02-10T11:49:50Z,42.805,6.029,13.3000,4.60028,2470.413,2022-2-10T13:51:23Z
2022-02-10T11:52:53Z,42.805,6.029,13.3000,4.60026,2470.46,2022-2-10T13:54:27Z
2022-02-10T11:55:57Z,42.805,6.029,13.2999,4.60026,2470.413,2022-2-10T13:57:30Z
2022-02-10T11:59:00Z,42.805,6.029,13.3002,4.60029,2470.437,2022-2-10T14:00:33Z
2022-02-10T12:02:03Z,42.805,6.029,13.3000,4.60026,2470.437,2022-2-10T14:03:36Z
2022-02-10T12:05:06Z,42.805,6.029,13.3001,4.60028,2470.437,2022-2-10T14:06:39Z
2022-02-10T12:08:09Z,42.805,6.029,13.2996,4.60024,2470.413,2022-2-10T14:09:42Z
2022-02-10T12:11:12Z,42.805,6.029,13.2998,4.60025,2470.399,2022-2-10T14:12:45Z
2022-02-10T12:14:15Z,42.805,6.029,13.2996,4.60025,2470.437,2022-2-10T14:15:48Z
2022-02-10T12:17:18Z,42.805,6.029,13.3001,4.60025,2470.437,2022-2-10T14:18:52Z
2022-02-10T12:20:22Z,42.805,6.029,13.3000,4.60024,2470.404,2022-2-10T14:21:55Z
2022-02-10T12:23:25Z,42.805,6.029,13.2999,4.60025,2470.413,2022-2-10T14:24:58Z
2022-02-10T12:26:28Z,42.805,6.029,13.2998,4.60025,2470.39,2022-2-10T14:28:01Z
2022-02-10T12:29:31Z,42.805,6.029,13.2996,4.60025,2470.45,2022-2-10T14:31:04Z
2022-02-10T12:32:34Z,42.805,6.029,13.2996,4.60024,2470.474,2022-2-10T14:34:07Z
2022-02-10T12:35:37Z,42.805,6.029,13.2998,4.60025,2470.474,2022-2-10T14:37:10Z
2022-02-10T12:38:40Z,42.805,6.029,13.2998,4.60024,2470.427,2022-2-10T14:40:13Z
2022-02-10T12:41:43Z,42.805,6.029,13.2996,4.60024,2470.45,2022-2-10T14:43:17Z
2022-02-10T12:44:47Z,42.805,6.029,13.2998,4.60025,2470.45,2022-2-10T14:46:20Z
2022-02-10T12:47:50Z,42.805,6.029,13.2999,4.60026,2470.437,2022-2-10T14:49:23Z
2022-02-10T12:50:53Z,42.805,6.029,13.2994,4.60024,2470.437,2022-2-10T14:52:26Z
2022-02-10T12:53:56Z,42.805,6.029,13.2996,4.60024,2470.427,2022-2-10T14:55:29Z
2022-02-10T12:56:59Z,42.805,6.029,13.2996,4.60024,2470.437,2022-2-10T14:58:32Z
2022-02-10T13:00:02Z,42.805,6.029,13.2996,4.60025,2470.45,2022-2-10T15:01:35Z
2022-02-10T13:03:05Z,42.805,6.029,13.3000,4.60024,2470.45,2022-2-10T15:04:38Z
2022-02-10T13:06:08Z,42.805,6.029,13.2998,4.60024,2470.46,2022-2-10T15:07:42Z
2022-02-10T13:09:12Z,42.805,6.029,13.2999,4.60024,2470.46,2022-2-10T15:10:45Z
2022-02-10T13:12:15Z,42.805,6.029,13.2994,4.60024,2470.437,2022-2-10T15:13:48Z
2022-02-10T13:15:18Z,42.805,6.029,13.2996,4.60024,2470.39,2022-2-10T15:16:51Z
2022-02-10T13:18:21Z,42.805,6.029,13.2996,4.60023,2470.39,2022-2-10T15:19:54Z
2022-02-10T13:21:24Z,42.805,6.029,13.2994,4.60025,2470.437,2022-2-10T15:22:57Z
2022-02-10T13:24:27Z,42.805,6.029,13.3001,4.60024,2470.39,2022-2-10T15:26:00Z
2022-02-10T13:27:30Z,42.805,6.029,13.2993,4.60022,2470.446,2022-2-10T15:29:03Z
2022-02-10T13:30:33Z,42.805,6.029,13.2996,4.60023,2470.413,2022-2-10T15:32:07Z
2022-02-10T13:33:37Z,42.805,6.029,13.2996,4.60024,2470.39,2022-2-10T15:35:10Z
2022-02-10T13:36:40Z,42.805,6.029,13.2998,4.60024,2470.437,2022-2-10T15:38:13Z
2022-02-10T13:39:43Z,42.805,6.029,13.3000,4.60025,2470.413,2022-2-10T15:41:16Z
2022-02-10T13:42:46Z,42.805,6.029,13.2998,4.60024,2470.413,2022-2-10T15:44:19Z
2022-02-10T13:45:49Z,42.805,6.029,13.3000,4.60024,2470.437,2022-2-10T15:47:22Z
2022-02-10T13:48:52Z,42.805,6.029,13.2995,4.60023,2470.413,2022-2-10T15:50:25Z
2022-02-10T13:51:55Z,42.805,6.029,13.2995,4.60024,2470.437,2022-2-10T15:53:29Z
2022-02-10T13:54:59Z,42.805,6.029,13.2996,4.60022,2470.413,2022-2-10T15:56:32Z
2022-02-10T13:58:02Z,42.805,6.029,13.2996,4.60023,2470.46,2022-2-10T15:59:35Z
2022-02-10T14:01:05Z,42.805,6.029,13.2998,4.60025,2470.45,2022-2-10T16:02:38Z
2022-02-10T14:04:08Z,42.805,6.029,13.2997,4.60024,2470.474,2022-2-10T16:05:41Z
2022-02-10T14:07:11Z,42.805,6.029,13.2995,4.60021,2470.427,2022-2-10T16:08:44Z
2022-02-10T14:10:14Z,42.805,6.029,13.2996,4.60025,2470.474,2022-2-10T16:11:47Z
2022-02-10T14:13:17Z,42.805,6.029,13.2996,4.60022,2470.427,2022-2-10T16:14:50Z
2022-02-10T14:16:20Z,42.805,6.029,13.2999,4.60022,2470.437,2022-2-10T16:17:54Z
2022-02-10T14:19:24Z,42.805,6.029,13.2997,4.60024,2470.427,2022-2-10T16:20:57Z
2022-02-10T14:22:27Z,42.805,6.029,13.2998,4.60024,2470.413,2022-2-10T16:24:00Z
2022-02-10T14:25:30Z,42.805,6.029,13.2993,4.60022,2470.437,2022-2-10T16:27:03Z
2022-02-10T14:28:33Z,42.805,6.029,13.2995,4.60022,2470.437,2022-2-10T16:30:06Z
2022-02-10T14:31:36Z,42.805,6.029,13.2996,4.60022,2470.45,2022-2-10T16:33:09Z
2022-02-10T14:34:39Z,42.805,6.029,13.2997,4.60023,2470.437,2022-2-10T16:36:12Z
2022-02-10T14:37:42Z,42.805,6.029,13.2997,4.60024,2470.413,2022-2-10T16:39:15Z
2022-02-10T14:40:45Z,42.805,6.029,13.2994,4.60023,2470.413,2022-2-10T16:42:19Z
2022-02-10T14:43:49Z,42.805,6.029,13.2996,4.60024,2470.483,2022-2-10T16:45:22Z
2022-02-10T14:46:52Z,42.805,6.029,13.2996,4.60022,2470.437,2022-2-10T16:48:25Z
2022-02-10T14:49:55Z,42.805,6.029,13.2997,4.60025,2470.437,2022-2-10T16:51:28Z
2022-02-10T14:52:58Z,42.805,6.029,13.2998,4.60023,2470.46,2022-2-10T16:54:31Z
2022-02-10T14:56:01Z,42.805,6.029,13.2994,4.60022,2470.474,2022-2-10T16:57:34Z
2022-02-10T14:59:04Z,42.805,6.029,13.2998,4.60023,2470.437,2022-2-10T17:00:37Z
2022-02-10T15:02:07Z,42.805,6.029,13.2996,4.60023,2470.46,2022-2-10T17:03:40Z
2022-02-10T15:05:10Z,42.805,6.029,13.2996,4.60023,2470.437,2022-2-10T17:06:44Z
2022-02-10T15:08:14Z,42.805,6.029,13.2997,4.60028,2470.437,2022-2-10T17:09:47Z
2022-02-10T15:11:17Z,42.805,6.029,13.2994,4.60023,2470.45,2022-2-10T17:12:50Z
2022-02-10T15:14:20Z,42.805,6.029,13.2992,4.60024,2470.46,2022-2-10T17:15:53Z